AMOS-3

Last updated on Wed Nov 05 2025 00:02:46 GMT+0000 (Coordinated Universal Time)

1 32794U 08022A 25308.24959095 .00000000 00000+0 00000+0 0 9996 2 32794 0.0156 107.4500 0004080 113.6063 268.4109 1.00271287 80082
UTC large
Height (km)
Speed (km/s)
/
Latitude / Longitude
Inclination (degrees)
Orbital Period (minutes)
Azimuth
Elevation
Range (km)
Doppler Factor

Next 0 passes for location: London (51.5072 / 0.1276)

Sorry there are no passes over London.